一网星座-0312星 (ONEWEB-0312 )

导读 | 星芒AI

ONEWEB-0312 是 OneWeb 卫星星座计划中的一颗低轨通信卫星,旨在为全球提供高速互联网服务。该卫星于2023年发射,属于OneWeb第二代卫星系列,具备更高容量和更先进通信技术。其部署有助于扩大覆盖范围,提升连接质量,特别是在偏远和农村地区。OneWeb 项目由多家国际企业与政府支持,致力于实现全球数字包容。

基本信息
目录编号:
49098
目录名称:
ONEWEB-0312
国际标识:
2021-075Z
轨道中心:
EARTH
卫星名称:
一网星座-0312星
卫星全名:
一网星座-0312星 (ONEWEB-0312 )
卫星状态:
在轨 (已飞行1577 天)
发射日期:
2021-08-21 UTC
国别 :
英国 (GB)
星等 :
--
轨道信息
数据来源 国际轨道数据
星历时间: 2025-12-15T05:21:21+0800
21小时前
查看轨道信息
半长轴: 7571.859km
偏心率: 0.0001443
轨道倾角: 87.911°
近地点辐角 106.744°
升交点赤经 42.525°
平近点角 253.385°
近地点: 1192.631km
远地点: 1194.817km
周期: 109.286分钟
每日圈数: 13.176468
详细信息
平衡模式:
三轴稳定
覆盖范围:
全球
运营商:
一网卫星公司
运营商所在国:
英国
制造商(研发单位):
一网卫星公司
制造商所在国:
英国
使用方式:
暂无
卫星简介
OneWeb卫星网络由648颗重约125公斤的微型卫星组成,运行在1200公里的轨道上。 每颗卫星都能够提供至少每秒8千兆位的吞吐量,以使用其高吞吐量的Ku频段有效载荷为家庭和移动平台提供互联网接入。该卫星仍在工作。
2D轨道图
3D轨道图
轨道高度分析图
轨道倾角分析图
轨道综合分析图
查看轨道综合分析图